Regional Weather Roundup
Issued by NWS State College, PA

Home | Current Version | Previous Version | Graphics & Text | Print | Product List | Glossary Off
Versions: 1 2 3 4 5 6 7 8 9 10 11 12 13 14 15 16 17 18 19 20 21 22 23 24 25 26 27 28 29 30 31 32 33 34 35 36 37 38 39 40 41 42 43 44 45 46 47 48 49 50

978
ASUS41 KCTP 010210
RWRCTP

REGIONAL WEATHER ROUNDUP
NATIONAL WEATHER SERVICE STATE COLLEGE PA
1000 PM EDT SAT APR 30 2016

Note: "fair" indicates few or no clouds below 12,000 feet with no
significant weather and/or obstructions to visibility.

* = STATION THAT DOES NOT REPORT PRECIPITATION /E.G. RAIN...SNOW...ETC/
    THUNDER OR FOG.

PAZ002>004-007>009-013>016-020>023-029>032-010300-
WESTERN PENNSYLVANIA

CITY           SKY/WX    TMP DP  RH WIND       PRES   REMARKS
ERIE           LGT RAIN  53  48  83 SE9       30.06S
MEADVILLE      LGT RAIN  49  48  97 E7        30.05R FOG
FRANKLIN*      CLOUDY    48  46  93 E10       30.07R
NEW CASTLE     LGT RAIN  53  51  93 E5        30.02F
BEAVER COUNTY  NOT AVBL
BUTLER*        CLOUDY    52  48  87 E7        30.05S
PITTSBURGH INT CLOUDY    57  54  89 SE10      30.00S
PITTSBURGH     CLOUDY    55  52  89 SE14G22   30.00F
INDIANA*       CLOUDY    52  50  93 SE12      30.08F
LATROBE        LGT RAIN  54  54 100 SE12      30.08S
WASHINGTON CO* CLOUDY    55  52  88 SE9       30.00F
$$

PAZ004>006-010>012-017>019-024>028-033>037-041-042-045-046-049>053-010300-
CENTRAL PENNSYLVANIA

CITY           SKY/WX    TMP DP  RH WIND       PRES   REMARKS
BRADFORD       LGT RAIN  46  43  89 SE7       30.10F
DUBOIS         LGT RAIN  47  45  93 SE13      30.07F FOG
CLEARFIELD     LGT RAIN  49  45  86 E6        30.12F
JOHNSTOWN      LGT RAIN  47  43  86 SE9       30.08F
ALTOONA        LGT RAIN  48  46  93 S7        30.15S FOG
STATE COLLEGE  DRIZZLE   50  46  88 CALM      30.15S
WILLIAMSPORT   CLOUDY    55  41  59 SE7       30.17R
SELINSGROVE    LGT RAIN  54  44  69 SE6       30.19R
FT INDIANTOWN  CLOUDY    53  45  75 NE2       30.19S
CAPITAL CITY   CLOUDY    55  47  74 CALM      30.19S
HARRISBURG     CLOUDY    56  46  69 SE7       30.19R
YORK           CLOUDY    54  46  74 S3        30.20R
$$

PAZ038>040-043-044-047-048-054-055-060>062-067>071-010300-
EASTERN PENNSYLVANIA

CITY           SKY/WX    TMP DP  RH WIND       PRES   REMARKS
SCRANTON       CLOUDY    53  41  63 S3        30.19R
MOUNT POCONO   CLOUDY    47  39  74 SE3       30.19R
ALLENTOWN      CLOUDY    57  41  55 SE5       30.20S
QUAKERTOWN*    CLOUDY    54  43  66 S9        30.22R
READING        CLOUDY    55  42  61 S5        30.20R
LANCASTER      LGT RAIN  54  46  74 SE6       30.20R
COATESVILLE    MOCLDY    52  46  82 CALM      30.23R
POTTSTOWN      CLOUDY    54  44  69 S5        30.23R
BLUE BELL      CLOUDY    52  36  54 SE5       30.22R
DOYLESTOWN     CLOUDY    51  36  56 S8        30.22R
WILLOW GROVE   NOT AVBL
NORTH PHILA    CLOUDY    53  37  54 S6        30.25R
PHILADELPHIA   CLOUDY    54  33  45 SE7       30.24R
$$




USA.gov is the U.S. government's official web portal to all federal, state and local government web resources and services.